Home > Weather > Fullerton > Past weeks

Flag for USA Past Weather in Fullerton, California, USA — Yesterday and Last 2 Weeks

Now
72 °F

Clear.


Feels Like: 73 °F
Forecast: 70 / 87 °F
Wind: 5 mph from Southwest

Location: Fullerton Municipal Airport

Current Time: Jul 31, 2016 at 2:45:24 AM

Latest Report: Jul 31, 2016 at 1:53 AM


Visibility: 10 mi

Pressure: 29.86 "Hg

Humidity: 78%

Dew Point: 65 °F

Location of FullertonLocation

Past Weather in Fullerton — Graph

°F

Fullerton Temperature Yesterday

Maximum temperature yesterday: 87 °F (at 2:53 PM)
Minimum temperature yesterday: 73 °F (at 12:53 AM)
Average temperature yesterday: 78 °F

High & Low Weather Summary for the Past Weeks

 TemperatureHumidityPressure
High103 °F (Jul 22, 2:53 PM)87% (Jul 24, 4:53 AM)30.02 "Hg (Jul 24, 4:53 AM)
Low65 °F (Jul 17, 1:53 AM)13% (Jul 22, 3:53 PM)29.75 "Hg (Jul 29, 6:53 PM)
Average79 °F57%29.88 "Hg
* Reported Jul 16 12:53 AM — Jul 31 12:53 AM, Fullerton, Weather by CustomWeather, © 2016

Note: Actual official high and low records may vary slightly from our data, if they occured in-between our weather recording intervals... More about our weather records

Advertising

Fullerton Weather History for the Previous 24 Hours

Scroll right to see more
 ConditionsComfort  
Time TempWeatherWind HumidityBarometerVisibility
12:53 AM
Sun, Jul 31
73 °FClear.3 mph76%29.87 "Hg10 mi
11:53 PM
Sat, Jul 30
74 °FClear.5 mph74%29.88 "Hg10 mi
10:53 PM74 °FClear.6 mph71%29.87 "Hg10 mi
9:53 PM75 °FClear.No wind71%29.86 "Hg10 mi
8:53 PM76 °FClear.5 mph69%29.83 "Hg10 mi
7:53 PM77 °FSunny.6 mph66%29.81 "Hg10 mi
6:53 PM78 °FSunny.7 mph62%29.80 "Hg10 mi
5:53 PM80 °FSunny.6 mph60%29.80 "Hg10 mi
4:53 PM82 °FSunny.9 mph55%29.80 "Hg10 mi
3:53 PM85 °FSunny.8 mph51%29.81 "Hg10 mi
2:53 PM87 °FSunny.6 mph45%29.82 "Hg10 mi
1:53 PM86 °FSunny.9 mph48%29.83 "Hg10 mi
12:53 PM85 °FSunny.6 mph51%29.85 "Hg10 mi
11:53 AM82 °FSunny.7 mph56%29.87 "Hg10 mi
10:53 AM81 °FScattered clouds.10 mph58%29.87 "Hg10 mi
9:53 AM81 °FScattered clouds.5 mph60%29.86 "Hg10 mi
8:53 AM77 °FSunny.6 mph69%29.86 "Hg10 mi
7:53 AM74 °FSunny.No wind76%29.85 "Hg9 mi
6:53 AM73 °FClear.3 mph79%29.83 "Hg9 mi
5:53 AM73 °FClear.No wind79%29.81 "Hg10 mi
4:53 AM73 °FClear.No wind79%29.80 "Hg10 mi
3:53 AM73 °FClear.6 mph79%29.80 "Hg10 mi
2:53 AM73 °FOvercast.No wind79%29.78 "Hg10 mi
Weather by CustomWeather, © 2016

See weather overviewHow to use our weather pages